[[{"header":{"parameterUnit":"m.s-1","parameterCategory":1,"la1":30.2991,"la2":30.254,"lo1":-89.0895,"lo2":-89.0444,"dy":0.0017,"dx":0.0017,"nx":28,"ny":28,"refTime":"2024-10-19T03:00:00:Z","depth":0,"parameterNumber":2,"parameterNumberName":"U-component_of_WINDS"},"data":[0,0,0,0,0,0,0,0,0,0,0,0,0,0,0,0,0,0,0,0,0,0,0,0,0,0,0,0,0,0,0,0,0,0,0,0,0,0,0,0,0,0,0,0,0,0,0,0,0,0,0,0,0,0,0,0,0,0,-4.7187,-4.7187,0,-4.7187,-4.7187,-4.7187,-4.7066,-4.7063,-4.706,-4.7057,-4.7059,-4.7062,-4.7065,0,0,0,0,0,0,0,0,0,0,0,0,0,-4.7086,-4.7089,-4.7187,-4.7187,-4.7187,-4.7187,-4.7187,-4.7187,-4.7067,-4.7063,-4.7059,-4.7055,-4.7058,-4.7061,-4.7065,0,0,0,0,0,0,0,0,0,0,0,0,0,-4.7113,-4.709,-4.7187,-4.7127,-4.7122,-4.7187,-4.7187,-4.7187,-4.7068,-4.7063,-4.7058,-4.7054,-4.7057,-4.7061,-4.7065,-4.7189,0,0,-4.7079,-4.7081,0,0,0,0,0,0,0,0,-4.7111,-4.7117,-4.7136,-4.7131,-4.7125,-4.7122,-4.7152,-4.7188,-4.7069,-4.7088,-4.7057,-4.7051,-4.7084,-4.7086,-4.7096,-4.7189,-4.7189,-4.708,-4.7082,-4.7084,-4.7086,0,0,0,0,0,0,0,-4.711,-4.7116,-4.7187,-4.7136,-4.713,-4.7101,-4.71,-4.7158,-4.7113,-4.7086,-4.7077,-4.7079,-4.708,-4.7092,-4.7095,-4.7189,-4.708,-4.7084,-4.7086,-4.7088,-4.7386,-4.7391,0,0,0,0,0,0,-4.7116,-4.7115,-4.7187,-4.7187,-4.7106,-4.7107,-4.7105,-4.7128,-4.7112,-4.7105,-4.7083,-4.7073,-4.7087,-4.709,-4.7095,-4.724,-4.7084,-4.7089,-4.7091,-4.7381,-4.7387,-4.7393,0,0,0,0,0,0,-4.7114,-4.7123,-4.7187,-4.7149,-4.7155,-4.7114,-4.714,-4.713,-4.7142,-4.7109,-4.7101,-4.7104,-4.7083,-4.7089,-4.7167,-4.7239,-4.7091,-4.7095,-4.7375,-4.7383,-4.739,-4.7532,0,0,0,0,0,0,-4.7112,-4.7123,-4.7169,-4.7151,-4.7157,-4.7259,-4.7144,-4.7134,-4.715,-4.7138,-4.7127,-4.712,-4.708,-4.7161,-4.7171,-4.7242,-4.7098,-4.7368,-4.7378,-4.7387,-4.752,-4.7543,-4.7563,0,0,0,0,0,-4.7108,-4.7209,-4.7172,-4.7181,-4.7213,-4.7263,-4.7267,-4.7218,-4.7156,-4.7203,-4.7182,-4.7121,-4.7229,-4.717,-4.7181,-4.7254,-4.7363,-4.7375,-4.7387,-4.7511,-4.7539,-4.7562,0,0,0,0,0,0,-4.7237,-4.7205,-4.7164,-4.7261,-4.7266,-4.7242,-4.7299,-4.7248,-4.7271,-4.7258,-4.7197,-4.7195,-4.7284,-4.7276,-4.7211,-4.7374,-4.7285,-4.73,-4.7376,-4.7402,-4.7423,-4.7424,-4.7102,0,0,0,0,0,-4.7276,-4.7319,-4.7289,-4.7378,-4.7382,-4.7341,-4.736,-4.7322,-4.7325,-4.7326,-4.7311,-4.7316,-4.7352,-4.7376,-4.7407,-4.7518,-4.7516,-4.7574,-4.7596,-4.7613,-4.7627,-4.7688,-4.7715,-4.7431,-4.7431,-4.7431,0,0,-4.7359,-4.7347,-4.7377,-4.7403,-4.7402,-4.7449,-4.7343,-4.7396,-4.743,-4.7334,-4.7408,-4.7397,-4.7399,-4.7496,-4.7537,-4.7492,-4.7705,-4.7628,-4.7643,-4.7647,-4.7703,-4.773,-4.7754,-4.7439,-4.7438,-4.7436,0,0,-4.7533,-4.7527,-4.7602,-4.7603,-4.7603,-4.7575,-4.7593,-4.7578,-4.7567,-4.764,-4.757,-4.761,-4.7671,-4.7677,-4.7687,-4.7866,-4.7811,-4.7877,-4.7989,-4.805,-4.8072,-4.8092,-4.8158,-4.8182,-4.7891,-4.7891,-4.7892,0,-4.7636,-4.7702,-4.7646,-4.7705,-4.7719,-4.7634,-4.7711,-4.7715,-4.7725,-4.7738,-4.7687,-4.7764,-4.7759,-4.7857,-4.7901,-4.7911,-4.7932,-4.7879,-4.8073,-4.8092,-4.811,-4.8172,-4.8197,-4.79,-4.7899,-4.7898,-4.7897,0,-4.7829,-4.7876,-4.7937,-4.7949,-4.797,-4.8037,-4.7994,-4.8022,-4.7982,-4.7961,-4.8037,-4.8029,-4.8057,-4.8077,-4.8039,-4.817,-4.8143,-4.8084,-4.7993,-4.8146,-4.8204,-4.8227,-4.7911,-4.7908,-4.7906,-4.7904,0,0,-4.8084,-4.8066,-4.8089,-4.8095,-4.8089,-4.8126,-4.819,-4.8217,-4.8244,-4.8254,-4.8308,-4.8363,-4.8309,-4.8321,-4.8283,-4.8336,-4.8481,-4.827,-4.8269,-4.8311,-4.8628,-4.8675,-4.8703,-4.8444,-4.8448,-4.8452,-4.8629,0,-4.8255,-4.8362,-4.8315,-4.8429,-4.8473,-4.8394,-4.845,-4.8454,-4.8435,-4.8471,-4.8451,-4.8492,-4.8416,-4.8423,-4.8472,-4.8453,-4.8544,-4.8439,-4.8495,-4.8498,-4.8499,-4.8733,-4.8781,-4.8949,-4.8651,-4.8655,-4.8657,0,-4.8468,-4.8488,-4.8606,-4.8594,-4.8611,-4.8662,-4.8685,-4.872,-4.8723,-4.8706,-4.8721,-4.8672,-4.8735,-4.8645,-4.8733,-4.8663,-4.8684,-4.8678,-4.8683,-4.8688,-4.8589,-4.8746,-4.9001,-4.9028,-4.8692,-4.8689,-4.8687,0,-4.8645,-4.8701,-4.8779,-4.8786,-4.8774,-4.8813,-4.881,-4.8808,-4.8828,-4.8849,-4.8862,-4.8889,-4.8905,-4.8929,-4.8889,-4.8826,-4.8984,-4.8889,-4.8974,-4.8975,-4.9012,-4.901,-4.9276,-4.9022,-4.9021,-4.9021,-4.902,0,-4.8841,-4.8917,-4.8859,-4.8908,-4.8991,-4.8937,-4.9021,-4.9009,-4.9009,-4.9055,-4.8988,-4.9033,-4.8976,-4.9016,-4.8985,-4.9065,-4.9072,-4.9062,-4.9053,-4.9069,-4.9071,-4.9083,-4.9071,-4.9027,-4.9026,-4.9025,-4.9024,0,-4.9054,-4.9018,-4.9098,-4.9081,-4.9078,-4.9141,-4.9126,-4.9172,-4.9149,-4.9208,-4.9219,-4.9184,-4.9228,-4.919,-4.9232,-4.9211,-4.9318,-4.9291,-4.9317,-4.9311,-4.9398,-4.9391,-4.9682,-4.9719,-4.9439,-4.9442,-4.9444,0,-4.9183,-4.9239,-4.9228,-4.9254,-4.9256,-4.9298,-4.9319,-4.9268,-4.9293,-4.9302,-4.9347,-4.9385,-4.9413,-4.9487,-4.9466,-4.9499,-4.9474,-4.9574,-4.9478,-4.9494,-4.9479,-4.9477,-4.9483,-4.9594,-4.9597,-4.96,-4.9602,0,-4.9416,-4.9396,-4.9428,-4.9455,-4.9482,-4.9501,-4.9514,-4.954,-4.9488,-4.952,-4.9563,-4.9585,-4.9629,-4.9669,-4.9695,-4.9693,-4.9641,-4.9632,-4.9654,-4.9672,-4.9685,-4.9682,-4.9372,-4.9626,-4.9623,-4.9622,-4.962,-4.9619,-4.9592,-4.964,-4.964,-4.9679,-4.9684,-4.9699,-4.9741,-4.9724,-4.976,-4.9791,-4.9759,-4.9814,-4.9817,-4.9847,-4.9852,-4.9895,-4.9853,-4.9884,-4.9892,-4.9901,-4.9915,-4.9677,-4.9899,-4.9898,-4.9897,-4.9897,-4.9896,0,-4.9824,-4.982,-4.9857,-4.9879,-4.991,-4.9856,-4.9869,-4.99,-4.9948,-4.9956,-4.9985,-5.0037,-5.0076,-5.0059,-5.0093,-5.0131,-5.0108,-5.0142,-5.0139,-5.0141,-4.9949,-4.9928,-5.016,-5.016,-5.016,-5.016,-5.016,-5.016,-4.9948,-5.0027,-5.0007,-5.0089,-5.0085,-5.0137,-5.015,-5.0164,-5.017,-5.0231,-5.0263,-5.0251,-5.025,-5.0284,-5.0318,-5.0311,-5.0328,-5.0372,-5.0358,-5.0179,-5.0154,-5.0129,-5.0109,-5.0375,-5.0376,-5.0546,-5.0548,-5.0549]},{"header":{"parameterUnit":"m.s-1","parameterCategory":1,"la1":30.2991,"la2":30.254,"lo1":-89.0895,"lo2":-89.0444,"dy":0.0017,"dx":0.0017,"nx":28,"ny":28,"refTime":"2024-10-19T03:00:00:Z","depth":0,"parameterNumber":3,"parameterNumberName":"V-component_of_WINDS"},"data":[0,0,0,0,0,0,0,0,0,0,0,0,0,0,0,0,0,0,0,0,0,0,0,0,0,0,0,0,0,0,0,0,0,0,0,0,0,0,0,0,0,0,0,0,0,0,0,0,0,0,0,0,0,0,0,0,0,0,-0.9595,-0.9595,0,-0.9624,-0.9624,-0.9625,-0.96,-0.9599,-0.9598,-0.9597,-0.963,-0.9632,-0.9634,0,0,0,0,0,0,0,0,0,0,0,0,0,-0.9522,-0.9523,-0.9595,-0.9595,-0.9596,-0.9624,-0.9624,-0.9625,-0.9601,-0.9599,-0.9598,-0.9597,-0.9629,-0.9632,-0.9634,0,0,0,0,0,0,0,0,0,0,0,0,0,-0.9553,-0.9524,-0.9595,-0.9587,-0.9587,-0.9624,-0.9624,-0.9625,-0.9601,-0.9599,-0.9598,-0.9596,-0.9629,-0.9631,-0.9634,-0.9681,0,0,-0.9642,-0.9644,0,0,0,0,0,0,0,0,-0.9551,-0.9555,-0.9588,-0.9588,-0.9587,-0.9607,-0.961,-0.9644,-0.9601,-0.9596,-0.9597,-0.9596,-0.9624,-0.9627,-0.9636,-0.9683,-0.9684,-0.9643,-0.9644,-0.9645,-0.9646,0,0,0,0,0,0,0,-0.9549,-0.9554,-0.9607,-0.9588,-0.9588,-0.9583,-0.9586,-0.9617,-0.9618,-0.9596,-0.9594,-0.9598,-0.9623,-0.9633,-0.9636,-0.9685,-0.9643,-0.9645,-0.9647,-0.9648,-0.9774,-0.9775,0,0,0,0,0,0,-0.9547,-0.9552,-0.9606,-0.9607,-0.9565,-0.9585,-0.9588,-0.9602,-0.9618,-0.9618,-0.9599,-0.9597,-0.9629,-0.9633,-0.9637,-0.9695,-0.9645,-0.9648,-0.965,-0.9772,-0.9774,-0.9776,0,0,0,0,0,0,-0.9546,-0.9552,-0.9604,-0.9579,-0.9586,-0.9588,-0.9604,-0.9604,-0.9613,-0.962,-0.962,-0.9609,-0.9628,-0.9633,-0.9671,-0.9696,-0.9649,-0.9652,-0.977,-0.9773,-0.9775,-0.9811,0,0,0,0,0,0,-0.9544,-0.9552,-0.9569,-0.958,-0.9587,-0.9637,-0.9605,-0.9605,-0.9618,-0.9615,-0.9629,-0.963,-0.9627,-0.9667,-0.9673,-0.9699,-0.9654,-0.9768,-0.9771,-0.9774,-0.9807,-0.9814,-0.982,0,0,0,0,0,-0.9541,-0.9579,-0.957,-0.9577,-0.9609,-0.9638,-0.9643,-0.9638,-0.962,-0.9638,-0.9642,-0.963,-0.9691,-0.9671,-0.9678,-0.9705,-0.9766,-0.977,-0.9774,-0.9804,-0.9813,-0.982,0,0,0,0,0,0,-0.9572,-0.958,-0.9571,-0.9613,-0.9625,-0.9634,-0.9657,-0.9647,-0.9665,-0.9662,-0.9656,-0.9659,-0.9699,-0.9705,-0.9682,-0.9752,-0.9726,-0.9732,-0.9747,-0.9755,-0.9761,-0.976,-0.9656,0,0,0,0,0,-0.9583,-0.9606,-0.9612,-0.9648,-0.9654,-0.9655,-0.9667,-0.9662,-0.9675,-0.9681,-0.9688,-0.9701,-0.9724,-0.9739,-0.976,-0.9807,-0.9811,-0.9829,-0.9835,-0.984,-0.9846,-0.9873,-0.9881,-0.9788,-0.9788,-0.9788,0,0,-0.9608,-0.9615,-0.963,-0.9654,-0.9663,-0.9688,-0.9659,-0.9686,-0.9705,-0.9685,-0.9721,-0.9726,-0.9741,-0.9784,-0.9803,-0.979,-0.9872,-0.9845,-0.9849,-0.9852,-0.9878,-0.9886,-0.9894,-0.9791,-0.9791,-0.979,0,0,-0.9666,-0.9672,-0.9704,-0.9713,-0.9726,-0.9726,-0.9734,-0.9744,-0.9747,-0.9782,-0.9768,-0.979,-0.9829,-0.9841,-0.9852,-0.9913,-0.9902,-0.9919,-0.9954,-0.998,-0.9987,-0.9994,-1.0017,-1.0026,-0.9924,-0.9925,-0.9925,0,-0.9695,-0.973,-0.9722,-0.975,-0.9762,-0.9743,-0.9776,-0.9786,-0.9806,-0.9815,-0.98,-0.9848,-0.9857,-0.9903,-0.9918,-0.9926,-0.9936,-0.9919,-0.9986,-0.9993,-0.9999,-1.0022,-1.003,-0.9927,-0.9926,-0.9926,-0.9926,0,-0.9767,-0.9791,-0.9815,-0.9834,-0.9848,-0.9879,-0.9876,-0.9891,-0.9885,-0.9886,-0.9923,-0.9932,-0.9956,-0.9965,-0.996,-1.0011,-1.0003,-0.9987,-0.9961,-1.001,-1.0031,-1.004,-0.993,-0.9929,-0.9928,-0.9928,0,0,-0.9847,-0.986,-0.9869,-0.9878,-0.9891,-0.991,-0.9939,-0.9961,-0.9975,-0.9989,-1.0015,-1.0047,-1.0033,-1.0046,-1.0041,-1.0063,-1.0113,-1.0045,-1.0045,-1.0059,-1.0172,-1.0185,-1.0195,-1.0105,-1.0106,-1.0107,-1.0171,0,-0.9907,-0.9958,-0.9951,-1.0,-1.0023,-1.0006,-1.0031,-1.0043,-1.0044,-1.0065,-1.0067,-1.0091,-1.0069,-1.0077,-1.0098,-1.0102,-1.0136,-1.0097,-1.0131,-1.0132,-1.013,-1.0206,-1.0221,-1.028,-1.0179,-1.0181,-1.0182,0,-0.9984,-1.0,-1.0052,-1.0061,-1.0071,-1.0094,-1.0113,-1.0133,-1.0145,-1.0145,-1.0158,-1.0149,-1.018,-1.0151,-1.0195,-1.0168,-1.0181,-1.0185,-1.0187,-1.0193,-1.0162,-1.0216,-1.0299,-1.0309,-1.0194,-1.0193,-1.0192,0,-1.0041,-1.0075,-1.011,-1.0118,-1.0129,-1.0146,-1.0152,-1.0162,-1.0176,-1.0193,-1.0202,-1.0222,-1.0234,-1.0251,-1.0248,-1.0227,-1.0292,-1.0263,-1.0295,-1.0295,-1.0312,-1.0311,-1.0401,-1.0316,-1.0315,-1.0315,-1.0315,0,-1.011,-1.0143,-1.0136,-1.0158,-1.0194,-1.0186,-1.0222,-1.0226,-1.0235,-1.0259,-1.0244,-1.0266,-1.0259,-1.0282,-1.0279,-1.0317,-1.0321,-1.0323,-1.0323,-1.0326,-1.0327,-1.0337,-1.0334,-1.0318,-1.0317,-1.0317,-1.0316,0,-1.0181,-1.0177,-1.0215,-1.0222,-1.0224,-1.0251,-1.0257,-1.0279,-1.0278,-1.0308,-1.0315,-1.0315,-1.034,-1.0338,-1.0367,-1.0365,-1.0412,-1.0405,-1.0408,-1.0407,-1.044,-1.0438,-1.0542,-1.0556,-1.0459,-1.046,-1.046,0,-1.0226,-1.0251,-1.026,-1.0274,-1.0281,-1.0304,-1.0317,-1.0309,-1.0324,-1.034,-1.036,-1.0383,-1.0402,-1.0444,-1.0447,-1.047,-1.0465,-1.0499,-1.0468,-1.0471,-1.0468,-1.0468,-1.0472,-1.0507,-1.0508,-1.0509,-1.0509,0,-1.0309,-1.0306,-1.0325,-1.0344,-1.036,-1.0375,-1.0388,-1.0401,-1.0394,-1.0411,-1.0437,-1.0451,-1.048,-1.0505,-1.0525,-1.0532,-1.0521,-1.0519,-1.0528,-1.0533,-1.0535,-1.0537,-1.0428,-1.0517,-1.0516,-1.0516,-1.0515,-1.0515,-1.037,-1.0392,-1.0402,-1.0424,-1.0433,-1.0445,-1.0466,-1.0468,-1.0488,-1.0511,-1.0505,-1.0534,-1.0546,-1.0572,-1.0581,-1.0604,-1.0592,-1.0604,-1.0608,-1.0612,-1.0617,-1.0528,-1.0608,-1.0608,-1.0607,-1.0607,-1.0607,0,-1.0454,-1.0459,-1.048,-1.0498,-1.0516,-1.0501,-1.0515,-1.0531,-1.0557,-1.0568,-1.0587,-1.0616,-1.064,-1.0644,-1.0667,-1.0685,-1.068,-1.0691,-1.0692,-1.0694,-1.0625,-1.0617,-1.0695,-1.0695,-1.0695,-1.0695,-1.0695,-1.0695,-1.05,-1.0537,-1.0534,-1.0575,-1.058,-1.0608,-1.0617,-1.0629,-1.0638,-1.0671,-1.069,-1.0693,-1.0702,-1.0725,-1.0746,-1.0747,-1.0757,-1.0771,-1.077,-1.0707,-1.0698,-1.069,-1.0682,-1.0773,-1.0773,-1.0837,-1.0837,-1.0838]}]]